{"data":{"norad_id":56556,"intl_designator":"2023-065BF","name":"STARLINK-5302","alt_names":[],"object_type":"PAYLOAD","status":"ACTIVE","operator":null,"country":"US","launch_date":"2023-05-14","launch_site_code":"AFETR","launch_vehicle":null,"mission":null,"orbit_class":"UNKNOWN","rcs_meters":null,"size_class":null,"mass_kg":null,"dimensions":null,"purposes":["comms"],"wikipedia_slug":null,"has_3d_model":false,"image_url":null,"decayed_at":null,"tle_current":{"epoch":"2026-09-20T22:24:00.826560Z","epoch_age_seconds":77505,"freshness":"FRESH","line1":"1 56556U 23065BF  26263.93334290  .00000222  00000+0  17567-4 0  9990","line2":"2 56556  43.0028 200.8190 0000493 243.5314 116.5487 15.27580496186334","mean_motion":15.27580496,"eccentricity":4.93e-5,"inclination_deg":43.0028,"raan_deg":200.819,"arg_perigee_deg":243.5314,"mean_anomaly_deg":116.5487,"bstar":1.7567e-5,"rev_number":18633,"period_min":94.266718105571,"perigee_km":482.70935443631,"apogee_km":483.38586723893,"semimajor_km":6861.1846108376,"source":"CELESTRAK","updated_at":"2026-09-21T09:00:33.480031Z"}}}